Location: Eckley Miners' Village
(40.9930°N, 75.8630°W)
Time: 11:18:42
(UTC-04:00)

Vanguard 1 Rocket - Pass Details

Date: 12 March 2026
Orbit: 654 x 4213 km, 34.3° (Epoch: 11 April)

Event Time Altitude Azimuth Distance (km) Brightness Sun altitude
Rises 07:43:06 0° 221° (SW) 3,642 10.2 3.5°
Reaches altitude 10° 07:46:48 10° 202° (SSW) 2,347 9.4 4.2°
Maximum altitude 07:50:08 17° 160° (SSE) 1,691 9.3 4.8°
Drops below altitude 10° 07:53:06 10° 117° (ESE) 2,054 11.0 5.4°
Sets 07:56:01 0° 96° (E) 2,998 12.9 5.9°
